Time,TemperatureF,DewpointF,PressureIn,WindDirection,WindDirectionDegrees,WindSpeedMPH,WindSpeedGustMPH,Humidity,HourlyPrecipIn,Conditions,Clouds,dailyrainin,SoftwareType,DateUTC
2013-04-28 00:02:00,58.0,47.0,29.97,South,174,5.0,11.0,67,0.00,,,0.00,,2013-04-28 05:02:00,
2013-04-28 00:12:00,58.0,47.0,29.97,South,174,5.0,11.0,67,0.00,,,0.00,,2013-04-28 05:12:00,
2013-04-28 00:22:00,58.0,47.0,29.98,SSE,155,5.0,10.0,68,0.00,,,0.00,,2013-04-28 05:22:00,
2013-04-28 00:32:00,57.0,47.0,29.97,South,180,6.0,13.0,70,0.00,,,0.00,,2013-04-28 05:32:00,
2013-04-28 00:42:00,57.0,47.0,29.97,South,180,6.0,13.0,70,0.00,,,0.00,,2013-04-28 05:42:00,
2013-04-28 00:52:00,56.0,47.0,29.97,SE,136,5.0,12.0,73,0.00,,,0.00,,2013-04-28 05:52:00,
2013-04-28 01:01:00,55.0,47.0,29.97,SSE,166,6.0,12.0,75,0.00,,,0.00,,2013-04-28 06:01:00,
2013-04-28 01:12:00,55.0,47.0,29.97,SSE,166,6.0,12.0,75,0.00,,,0.00,,2013-04-28 06:12:00,
2013-04-28 01:21:00,54.0,47.0,29.97,South,190,5.0,11.0,77,0.00,,,0.00,,2013-04-28 06:21:00,
2013-04-28 01:32:00,54.0,47.0,29.97,South,186,4.0,15.0,78,0.00,,,0.00,,2013-04-28 06:32:00,
2013-04-28 01:42:00,54.0,47.0,29.97,South,186,4.0,15.0,78,0.00,,,0.00,,2013-04-28 06:42:00,
2013-04-28 01:52:00,53.0,47.0,29.97,South,169,5.0,11.0,80,0.00,,,0.00,,2013-04-28 06:52:00,
2013-04-28 02:01:00,53.0,47.0,29.97,SSW,199,4.0,13.0,81,0.00,,,0.00,,2013-04-28 07:01:00,
2013-04-28 02:11:00,53.0,47.0,29.97,SSW,199,4.0,13.0,81,0.00,,,0.00,,2013-04-28 07:11:00,
2013-04-28 02:21:00,53.0,47.0,29.97,SSW,196,6.0,14.0,81,0.00,,,0.00,,2013-04-28 07:21:00,
2013-04-28 02:31:00,52.0,46.0,29.96,ENE,76,4.0,12.0,81,0.00,,,0.00,,2013-04-28 07:31:00,
2013-04-28 02:42:00,52.0,46.0,29.96,ENE,76,4.0,12.0,81,0.00,,,0.00,,2013-04-28 07:42:00,
2013-04-28 02:52:00,52.0,47.0,29.96,SSE,159,5.0,12.0,82,0.00,,,0.00,,2013-04-28 07:52:00,
2013-04-28 03:02:00,52.0,47.0,29.95,South,169,4.0,13.0,82,0.00,,,0.00,,2013-04-28 08:02:00,
2013-04-28 03:11:00,52.0,47.0,29.95,South,169,4.0,13.0,82,0.00,,,0.00,,2013-04-28 08:11:00,
2013-04-28 03:21:00,52.0,47.0,29.96,South,172,4.0,11.0,83,0.00,,,0.00,,2013-04-28 08:21:00,
2013-04-28 03:32:00,52.0,47.0,29.95,SW,215,5.0,13.0,83,0.00,,,0.00,,2013-04-28 08:32:00,
2013-04-28 03:42:00,52.0,47.0,29.95,SW,215,5.0,13.0,83,0.00,,,0.00,,2013-04-28 08:42:00,
2013-04-28 03:52:00,51.0,46.0,29.94,SW,218,3.0,10.0,83,0.00,,,0.00,,2013-04-28 08:52:00,
2013-04-28 04:01:00,51.0,46.0,29.95,SSW,210,5.0,11.0,84,0.00,,,0.00,,2013-04-28 09:01:00,
2013-04-28 04:11:00,51.0,46.0,29.95,SSW,210,5.0,11.0,84,0.00,,,0.00,,2013-04-28 09:11:00,
2013-04-28 04:21:00,51.0,46.0,29.95,SW,227,4.0,14.0,84,0.00,,,0.00,,2013-04-28 09:21:00,
2013-04-28 04:33:00,51.0,47.0,29.94,SSW,194,4.0,9.0,85,0.00,,,0.00,,2013-04-28 09:33:00,
2013-04-28 04:42:00,51.0,47.0,29.94,SSW,194,4.0,9.0,85,0.00,,,0.00,,2013-04-28 09:42:00,
2013-04-28 04:53:00,50.0,46.0,29.94,SSE,163,3.0,9.0,86,0.00,,,0.00,,2013-04-28 09:53:00,
2013-04-28 05:03:00,50.0,46.0,29.93,South,171,4.0,8.0,86,0.00,,,0.00,,2013-04-28 10:03:00,
2013-04-28 05:12:00,50.0,46.0,29.93,South,171,4.0,8.0,86,0.00,,,0.00,,2013-04-28 10:12:00,
2013-04-28 05:22:00,50.0,46.0,29.93,South,180,4.0,10.0,87,0.00,,,0.00,,2013-04-28 10:22:00,
2013-04-28 05:32:00,50.0,46.0,29.93,SSW,193,4.0,10.0,87,0.00,,,0.00,,2013-04-28 10:32:00,
2013-04-28 05:42:00,50.0,46.0,29.93,SSW,193,4.0,10.0,87,0.00,,,0.00,,2013-04-28 10:42:00,
2013-04-28 05:53:00,49.0,46.0,29.93,South,184,3.0,8.0,88,0.00,,,0.00,,2013-04-28 10:53:00,
2013-04-28 06:02:00,49.0,46.0,29.92,SSE,165,4.0,9.0,89,0.00,,,0.00,,2013-04-28 11:02:00,
2013-04-28 06:11:00,49.0,46.0,29.92,SSE,165,4.0,9.0,89,0.00,,,0.00,,2013-04-28 11:11:00,
2013-04-28 06:22:00,49.0,46.0,29.92,SSE,168,2.0,8.0,89,0.00,,,0.00,,2013-04-28 11:22:00,
2013-04-28 06:32:00,49.0,46.0,29.92,South,188,3.0,9.0,89,0.00,,,0.00,,2013-04-28 11:32:00,
2013-04-28 06:42:00,49.0,46.0,29.92,South,188,3.0,9.0,89,0.00,,,0.00,,2013-04-28 11:42:00,
2013-04-28 06:52:00,49.0,46.0,29.92,ESE,114,4.0,7.0,89,0.00,,,0.00,,2013-04-28 11:52:00,
2013-04-28 07:02:00,49.0,46.0,29.92,SSW,193,2.0,9.0,89,0.00,,,0.00,,2013-04-28 12:02:00,
2013-04-28 07:12:00,49.0,46.0,29.92,SSW,193,2.0,9.0,89,0.00,,,0.00,,2013-04-28 12:12:00,
2013-04-28 07:21:00,49.0,46.0,29.91,South,186,3.0,9.0,89,0.00,,,0.00,,2013-04-28 12:21:00,
2013-04-28 07:32:00,49.0,46.0,29.91,South,173,3.0,10.0,89,0.00,,,0.00,,2013-04-28 12:32:00,
2013-04-28 07:42:00,49.0,46.0,29.91,South,173,3.0,10.0,89,0.00,,,0.00,,2013-04-28 12:42:00,
2013-04-28 07:52:00,50.0,47.0,29.91,South,169,5.0,10.0,89,0.00,,,0.00,,2013-04-28 12:52:00,
2013-04-28 08:02:00,51.0,48.0,29.90,SSE,162,4.0,11.0,88,0.00,,,0.00,,2013-04-28 13:02:00,
2013-04-28 08:11:00,51.0,48.0,29.90,SSE,162,4.0,11.0,88,0.00,,,0.00,,2013-04-28 13:11:00,
2013-04-28 08:21:00,52.0,48.0,29.90,SSE,153,4.0,9.0,87,0.00,,,0.00,,2013-04-28 13:21:00,
2013-04-28 08:31:00,53.0,49.0,29.90,South,186,3.0,9.0,85,0.00,,,0.00,,2013-04-28 13:31:00,
2013-04-28 08:42:00,53.0,49.0,29.90,South,186,3.0,9.0,85,0.00,,,0.00,,2013-04-28 13:42:00,
2013-04-28 08:52:00,54.0,49.0,29.90,SSE,148,5.0,11.0,84,0.00,,,0.00,,2013-04-28 13:52:00,
2013-04-28 09:01:00,56.0,50.0,29.90,WSW,238,5.0,10.0,81,0.00,,,0.00,,2013-04-28 14:01:00,
2013-04-28 09:11:00,56.0,50.0,29.90,WSW,238,5.0,10.0,81,0.00,,,0.00,,2013-04-28 14:11:00,
2013-04-28 09:22:00,57.0,50.0,29.89,South,190,5.0,11.0,78,0.00,,,0.00,,2013-04-28 14:22:00,
2013-04-28 09:32:00,58.0,50.0,29.89,WSW,237,7.0,16.0,76,0.00,,,0.00,,2013-04-28 14:32:00,
2013-04-28 09:42:00,58.0,50.0,29.89,WSW,237,7.0,16.0,76,0.00,,,0.00,,2013-04-28 14:42:00,
2013-04-28 09:52:00,59.0,51.0,29.88,South,178,6.0,14.0,74,0.00,,,0.00,,2013-04-28 14:52:00,
2013-04-28 10:01:00,61.0,52.0,29.87,South,169,6.0,12.0,72,0.00,,,0.00,,2013-04-28 15:01:00,
2013-04-28 10:12:00,61.0,52.0,29.87,South,169,6.0,12.0,72,0.00,,,0.00,,2013-04-28 15:12:00,
2013-04-28 10:21:00,63.0,52.0,29.86,South,172,5.0,13.0,68,0.00,,,0.00,,2013-04-28 15:21:00,
2013-04-28 10:32:00,65.0,52.0,29.85,SSE,154,7.0,16.0,63,0.00,,,0.00,,2013-04-28 15:32:00,
2013-04-28 10:42:00,65.0,52.0,29.85,SSE,154,7.0,16.0,63,0.00,,,0.00,,2013-04-28 15:42:00,
2013-04-28 10:53:00,66.0,51.0,29.85,SE,129,7.0,15.0,58,0.00,,,0.00,,2013-04-28 15:53:00,
2013-04-28 11:03:00,67.0,52.0,29.85,SSE,148,6.0,16.0,58,0.00,,,0.00,,2013-04-28 16:03:00,
2013-04-28 11:13:00,67.0,52.0,29.85,SSE,148,6.0,16.0,58,0.00,,,0.00,,2013-04-28 16:13:00,
2013-04-28 11:23:00,69.0,51.0,29.85,SSE,166,7.0,20.0,53,0.00,,,0.00,,2013-04-28 16:23:00,
2013-04-28 11:33:00,70.0,49.0,29.84,South,189,8.0,17.0,47,0.00,,,0.00,,2013-04-28 16:33:00,
2013-04-28 11:42:00,70.0,49.0,29.84,South,189,8.0,17.0,47,0.00,,,0.00,,2013-04-28 16:42:00,
2013-04-28 11:52:00,71.0,49.0,29.84,SSE,155,8.0,23.0,46,0.00,,,0.00,,2013-04-28 16:52:00,
2013-04-28 12:02:00,71.0,48.0,29.83,SSW,200,9.0,19.0,44,0.00,,,0.00,,2013-04-28 17:02:00,
2013-04-28 12:12:00,71.0,48.0,29.83,SSW,200,9.0,19.0,44,0.00,,,0.00,,2013-04-28 17:12:00,
2013-04-28 12:22:00,72.0,48.0,29.83,ESE,111,7.0,15.0,43,0.00,,,0.00,,2013-04-28 17:22:00,
2013-04-28 12:32:00,73.0,49.0,29.82,SW,216,7.0,17.0,42,0.00,,,0.00,,2013-04-28 17:32:00,
2013-04-28 12:42:00,73.0,49.0,29.82,SW,216,7.0,17.0,42,0.00,,,0.00,,2013-04-28 17:42:00,
2013-04-28 12:52:00,74.0,49.0,29.82,SSW,198,7.0,16.0,41,0.00,,,0.00,,2013-04-28 17:52:00,
2013-04-28 13:02:00,75.0,48.0,29.81,SSW,196,8.0,18.0,39,0.00,,,0.00,,2013-04-28 18:02:00,
2013-04-28 13:12:00,75.0,48.0,29.81,SSW,196,8.0,18.0,39,0.00,,,0.00,,2013-04-28 18:12:00,
2013-04-28 13:22:00,75.0,48.0,29.80,SSW,211,6.0,18.0,39,0.00,,,0.00,,2013-04-28 18:22:00,
2013-04-28 13:32:00,75.0,50.0,29.80,SW,217,6.0,18.0,41,0.00,,,0.00,,2013-04-28 18:32:00,
2013-04-28 13:42:00,75.0,50.0,29.80,SW,217,6.0,18.0,41,0.00,,,0.00,,2013-04-28 18:42:00,
2013-04-28 13:52:00,76.0,49.0,29.80,South,180,9.0,22.0,38,0.00,,,0.00,,2013-04-28 18:52:00,
2013-04-28 14:02:00,77.0,48.0,29.79,SSE,162,7.0,16.0,36,0.00,,,0.00,,2013-04-28 19:02:00,
2013-04-28 14:11:00,77.0,48.0,29.79,SSE,162,7.0,16.0,36,0.00,,,0.00,,2013-04-28 19:11:00,
2013-04-28 14:21:00,77.0,47.0,29.78,SW,227,9.0,18.0,35,0.00,,,0.00,,2013-04-28 19:21:00,
2013-04-28 14:31:00,78.0,48.0,29.78,South,186,8.0,17.0,35,0.00,,,0.00,,2013-04-28 19:31:00,
2013-04-28 14:42:00,78.0,48.0,29.78,South,186,8.0,17.0,35,0.00,,,0.00,,2013-04-28 19:42:00,
2013-04-28 14:52:00,79.0,48.0,29.77,SSW,205,7.0,12.0,34,0.00,,,0.00,,2013-04-28 19:52:00,
2013-04-28 15:02:00,79.0,47.0,29.77,SSE,154,8.0,16.0,33,0.00,,,0.00,,2013-04-28 20:02:00,
2013-04-28 15:11:00,79.0,47.0,29.77,SSE,154,8.0,16.0,33,0.00,,,0.00,,2013-04-28 20:11:00,
2013-04-28 15:22:00,80.0,48.0,29.76,South,171,8.0,15.0,33,0.00,,,0.00,,2013-04-28 20:22:00,
2013-04-28 15:32:00,80.0,48.0,29.76,SW,218,6.0,20.0,33,0.00,,,0.00,,2013-04-28 20:32:00,
2013-04-28 15:42:00,80.0,48.0,29.76,SW,218,6.0,20.0,33,0.00,,,0.00,,2013-04-28 20:42:00,
2013-04-28 15:52:00,81.0,48.0,29.76,South,186,7.0,12.0,32,0.00,,,0.00,,2013-04-28 20:52:00,
2013-04-28 16:01:00,81.0,49.0,29.75,South,188,6.0,14.0,33,0.00,,,0.00,,2013-04-28 21:01:00,
2013-04-28 16:11:00,81.0,49.0,29.75,South,188,6.0,14.0,33,0.00,,,0.00,,2013-04-28 21:11:00,
2013-04-28 16:22:00,81.0,48.0,29.74,SW,235,6.0,14.0,32,0.00,,,0.00,,2013-04-28 21:22:00,
2013-04-28 16:32:00,81.0,47.0,29.74,WSW,254,8.0,14.0,31,0.00,,,0.00,,2013-04-28 21:32:00,
2013-04-28 16:42:00,81.0,47.0,29.74,WSW,254,8.0,14.0,31,0.00,,,0.00,,2013-04-28 21:42:00,
2013-04-28 16:53:00,82.0,48.0,29.73,WSW,251,5.0,12.0,31,0.00,,,0.00,,2013-04-28 21:53:00,
2013-04-28 17:03:00,82.0,47.0,29.72,SW,224,8.0,14.0,29,0.00,,,0.00,,2013-04-28 22:03:00,
2013-04-28 17:12:00,82.0,47.0,29.72,SW,224,8.0,14.0,29,0.00,,,0.00,,2013-04-28 22:12:00,
2013-04-28 17:22:00,82.0,46.0,29.72,SSE,153,5.0,12.0,28,0.00,,,0.00,,2013-04-28 22:22:00,
2013-04-28 17:33:00,82.0,48.0,29.72,SW,218,4.0,14.0,31,0.00,,,0.00,,2013-04-28 22:33:00,
2013-04-28 17:42:00,82.0,48.0,29.72,SW,218,4.0,14.0,31,0.00,,,0.00,,2013-04-28 22:42:00,
2013-04-28 17:52:00,81.0,48.0,29.71,WSW,245,5.0,15.0,32,0.00,,,0.00,,2013-04-28 22:52:00,
2013-04-28 18:02:00,81.0,47.0,29.70,SW,219,8.0,15.0,30,0.00,,,0.00,,2013-04-28 23:02:00,
2013-04-28 18:12:00,81.0,47.0,29.70,SW,219,8.0,15.0,30,0.00,,,0.00,,2013-04-28 23:12:00,
2013-04-28 18:22:00,81.0,46.0,29.70,South,191,7.0,13.0,29,0.00,,,0.00,,2013-04-28 23:22:00,
2013-04-28 18:32:00,81.0,47.0,29.70,South,170,4.0,11.0,31,0.00,,,0.00,,2013-04-28 23:32:00,
2013-04-28 18:42:00,81.0,47.0,29.70,South,170,4.0,11.0,31,0.00,,,0.00,,2013-04-28 23:42:00,
2013-04-28 18:52:00,80.0,46.0,29.70,South,190,3.0,12.0,30,0.00,,,0.00,,2013-04-28 23:52:00,
2013-04-28 19:01:00,79.0,46.0,29.70,SSW,202,6.0,11.0,31,0.00,,,0.00,,2013-04-29 00:01:00,
2013-04-28 19:11:00,79.0,46.0,29.70,SSW,202,6.0,11.0,31,0.00,,,0.00,,2013-04-29 00:11:00,
2013-04-28 19:22:00,79.0,47.0,29.70,South,183,3.0,8.0,32,0.00,,,0.00,,2013-04-29 00:22:00,
2013-04-28 19:32:00,78.0,46.0,29.71,SW,230,4.0,12.0,32,0.00,,,0.00,,2013-04-29 00:32:00,
2013-04-28 19:41:00,78.0,46.0,29.71,SW,230,4.0,12.0,32,0.00,,,0.00,,2013-04-29 00:41:00,
2013-04-28 19:52:00,75.0,50.0,29.75,WNW,289,15.0,24.0,42,0.00,,,0.00,,2013-04-29 00:52:00,
2013-04-28 20:01:00,68.0,52.0,29.77,WNW,295,10.0,19.0,56,0.00,,,0.00,,2013-04-29 01:01:00,
2013-04-28 20:12:00,66.0,51.0,29.79,WNW,299,8.0,17.0,59,0.00,,,0.00,,2013-04-29 01:12:00,
2013-04-28 20:21:00,66.0,51.0,29.79,WNW,299,8.0,17.0,59,0.00,,,0.00,,2013-04-29 01:21:00,
2013-04-28 20:32:00,65.0,53.0,29.79,NW,308,3.0,11.0,65,0.00,,,0.00,,2013-04-29 01:32:00,
2013-04-28 20:42:00,65.0,53.0,29.79,NW,308,3.0,11.0,65,0.00,,,0.00,,2013-04-29 01:42:00,
2013-04-28 20:52:00,63.0,53.0,29.76,NW,315,5.0,15.0,69,0.01,,,0.01,,2013-04-29 01:52:00,
2013-04-28 21:02:00,64.0,54.0,29.79,West,275,2.0,5.0,71,0.01,,,0.01,,2013-04-29 02:02:00,
2013-04-28 21:11:00,64.0,54.0,29.79,West,275,2.0,5.0,71,0.01,,,0.01,,2013-04-29 02:11:00,
2013-04-28 21:21:00,63.0,53.0,29.78,North,355,1.0,3.0,71,0.01,,,0.01,,2013-04-29 02:21:00,
2013-04-28 21:32:00,63.0,54.0,29.79,NW,325,2.0,6.0,72,0.01,,,0.01,,2013-04-29 02:32:00,
2013-04-28 21:41:00,63.0,54.0,29.79,NW,325,2.0,6.0,72,0.01,,,0.01,,2013-04-29 02:41:00,
2013-04-28 21:52:00,63.0,53.0,29.80,North,355,1.0,5.0,71,0.00,,,0.01,,2013-04-29 02:52:00,
2013-04-28 22:01:00,62.0,52.0,29.80,NW,307,1.0,4.0,69,0.00,,,0.01,,2013-04-29 03:01:00,
2013-04-28 22:12:00,62.0,52.0,29.80,NW,307,1.0,4.0,69,0.00,,,0.01,,2013-04-29 03:12:00,
2013-04-28 22:21:00,63.0,51.0,29.81,WNW,290,1.0,5.0,66,0.00,,,0.01,,2013-04-29 03:21:00,
2013-04-28 22:33:00,63.0,52.0,29.82,NNW,329,2.0,6.0,67,0.00,,,0.01,,2013-04-29 03:33:00,
2013-04-28 22:42:00,63.0,52.0,29.82,NNW,329,2.0,6.0,67,0.00,,,0.01,,2013-04-29 03:42:00,
2013-04-28 22:53:00,62.0,52.0,29.83,NNE,33,2.0,5.0,70,0.00,,,0.01,,2013-04-29 03:53:00,
2013-04-28 23:03:00,63.0,50.0,29.82,North,355,4.0,9.0,63,0.00,,,0.01,,2013-04-29 04:03:00,
2013-04-28 23:13:00,63.0,50.0,29.82,North,355,4.0,9.0,63,0.00,,,0.01,,2013-04-29 04:13:00,
2013-04-28 23:23:00,63.0,50.0,29.82,North,355,4.0,9.0,63,0.00,,,0.01,,2013-04-29 04:23:00,
2013-04-28 23:33:00,63.0,51.0,29.82,North,5,4.0,7.0,64,0.00,,,0.01,,2013-04-29 04:33:00,
2013-04-28 23:43:00,63.0,51.0,29.82,North,5,4.0,7.0,64,0.00,,,0.01,,2013-04-29 04:43:00,
2013-04-28 23:52:00,62.0,51.0,29.83,NNE,15,0.0,4.0,67,0.00,,,0.01,,2013-04-29 04:52:00,